FW1477 Weather Reports


time (UTC)temp
C
wind
direction
speed
KPH
gust
KPH
rain 1hr
cm
rain 24hr
cm
rain mn
cm
humidity
%
barometer
mb
20260505083017 16 248 4.8 17.7 0.00 0.00 0.00 56 1014.9
20260505082017 16 248 3.2 17.7 0.00 0.00 0.00 56 1015.2
20260505081017 16 248 1.6 16.1 0.00 0.00 0.00 56 1015.3
20260505080018 16 248 1.6 17.7 0.00 0.00 0.00 57 1015.2
20260505075017 17 248 1.6 12.9 0.00 0.00 0.00 57 1015.3
20260505074017 17 248 3.2 17.7 0.00 0.00 0.00 58 1015.6
20260505073017 17 248 1.6 12.9 0.00 0.00 0.00 58 1015.7
20260505064016 17 248 12.9 33.8 0.00 0.00 0.00 56 1015.9
20260505063016 17 248 8.0 30.6 0.00 0.00 0.00 56 1015.9
20260505062016 17 248 6.4 30.6 0.00 0.00 0.00 55 1016.0
20260505061035 18 248 4.8 17.7 0.00 0.00 0.00 54 1016.0
20260505060016 18 248 4.8 29.0 0.00 0.00 0.00 53 1016.5
20260505055016 18 225 4.8 20.9 0.00 0.00 0.00 51 1016.3
20260505054017 18 248 3.2 12.9 0.00 0.00 0.00 50 1016.3
20260505053016 18 248 8.0 25.7 0.00 0.00 0.00 49 1016.3
20260505052016 18 248 6.4 35.4 0.00 0.00 0.00 48 1016.2
20260505051016 19 248 6.4 25.7 0.00 0.00 0.00 47 1016.6
20260505041016 20 248 22.5 43.5 0.00 0.00 0.00 39 1015.7
20260505040015 20 248 24.1 48.3 0.00 0.00 0.00 38 1016.0
20260505035016 20 248 14.5 35.4 0.00 0.00 0.00 36 1015.9
20260505034020 21 248 12.9 29.0 0.00 0.00 0.00 35 1016.0
20260505033015 21 248 12.9 35.4 0.00 0.00 0.00 33 1015.8
20260505032016 21 248 12.9 38.6 0.00 0.00 0.00 32 1016.1
20260505031037 21 248 17.7 45.1 0.00 0.00 0.00 31 1016.2
20260505030016 22 248 14.5 37.0 0.00 0.00 0.00 29 1016.0
20260505025015 22 248 17.7 45.1 0.00 0.00 0.00 28 1015.9
20260505024015 22 248 1.6 29.0 0.00 0.00 0.00 27 1015.8
20260505023016 22 0.0 0.0 0.00 0.00 0.00 25 1016.1
20260505022016 23 0.0 0.0 0.00 0.00 0.00 23 1015.9
20260505021016 23 0.0 0.0 0.00 0.00 0.00 22 1015.7
20260505020016 23 0.0 0.0 0.00 0.00 0.00 21 1016.0
20260505015015 23 0.0 0.0 0.00 0.00 0.00 20 1015.8
20260505014015 24 0.0 0.0 0.00 0.00 0.00 19 1015.7
20260505013036 25 0.0 0.0 0.00 0.00 0.00 18 1016.1
20260505010015 26 0.0 0.0 0.00 0.00 0.00 15 1016.3
20260505005015 26 0.0 0.0 0.00 0.00 0.00 14 1016.1
20260505004016 27 0.0 0.0 0.00 0.00 0.00 13 1016.4
20260505003015 27 0.0 0.0 0.00 0.00 0.00 13 1016.4
20260505002015 27 0.0 0.0 0.00 0.00 0.00 12 1016.4
20260505001017 28 0.0 0.0 0.00 0.00 0.00 12 1016.8
20260505000018 28 0.0 0.0 0.00 0.00 0.00 11 1016.8
20260504235017 28 0.0 0.0 0.00 0.00 0.00 10 1016.8
20260504234035 28 0.0 0.0 0.00 0.00 0.00 11 1016.8
20260504233017 29 0.0 0.0 0.00 0.00 0.00 8 1017.2
20260504232022 29 0.0 0.0 0.00 0.00 0.00 8 1017.3
20260504225017 30 0.0 0.0 0.00 0.00 0.00 7 1017.3
20260504224017 30 0.0 0.0 0.00 0.00 0.00 7 1017.4
20260504223016 30 0.0 0.0 0.00 0.00 0.00 7 1017.4
20260504222018 30 0.0 0.0 0.00 0.00 0.00 8 1017.5
20260504221016 30 0.0 0.0 0.00 0.00 0.00 6 1017.8
20260504220016 30 0.0 0.0 0.00 0.00 0.00 8 1017.4
20260504215017 30 0.0 0.0 0.00 0.00 0.00 7 1017.9
20260504214017 30 0.0 0.0 0.00 0.00 0.00 6 1018.1
20260504213017 30 0.0 0.0 0.00 0.00 0.00 6 1017.7
20260504212017 30 0.0 0.0 0.00 0.00 0.00 6 1018.2
20260504210017 30 0.0 0.0 0.00 0.00 0.00 6 1018.4
20260504205037 30 0.0 0.0 0.00 0.00 0.00 6 1018.6
20260504204017 30 0.0 0.0 0.00 0.00 0.00 6 1018.7
20260504203036 30 0.0 0.0 0.00 0.00 0.00 6 1018.9
20260504202046 30 0.0 0.0 0.00 0.00 0.00 6 1018.7
20260504201017 30 0.0 0.0 0.00 0.00 0.00 6 1019.1
20260504200018 30 0.0 0.0 0.00 0.00 0.00 6 1019.3
20260504195016 30 0.0 0.0 0.00 0.00 0.00 5 1019.1
20260504194036 30 0.0 0.0 0.00 0.00 0.00 5 1019.3
20260504193016 30 0.0 0.0 0.00 0.00 0.00 5 1019.4
20260504191016 29 0.0 0.0 0.00 0.00 0.00 5 1019.6
20260504190036 30 0.0 0.0 0.00 0.00 0.00 5 1019.7
20260504185017 29 0.0 0.0 0.00 0.00 0.00 4 1019.8
20260504184046 28 0.0 0.0 0.00 0.00 0.00 4 1019.6
20260504183016 28 0.0 0.0 0.00 0.00 0.00 4 1019.8
20260504182016 28 0.0 0.0 0.00 0.00 0.00 4 1020.1
20260504181016 28 0.0 0.0 0.00 0.00 0.00 6 1020.3
20260504180016 27 0.0 0.0 0.00 0.00 0.00 5 1020.0
20260504175016 27 0.0 0.0 0.00 0.00 0.00 6 1020.3
20260504174016 27 0.0 0.0 0.00 0.00 0.00 6 1020.3
20260504173017 27 0.0 0.0 0.00 0.00 0.00 6 1020.3
20260504172016 27 0.0 0.0 0.00 0.00 0.00 5 1020.0
20260504171016 26 0.0 0.0 0.00 0.00 0.00 5 1020.2
20260504151015 20 0.0 0.0 0.00 0.00 0.00 14 1019.4
20260504141015 16 0.0 0.0 0.00 0.00 0.00 23 1017.5